Location: ??????
(38.0131°N, 23.7723°E)
Time: 06:16:18
(UTC+00:00)

Cosmos 1048 Rocket - Pass Details

Date: 17 October 2021
Orbit: 743 x 791 km, 74.0° (Epoch: 28 November)

Event Time Altitude Azimuth Distance (km) Brightness Sun altitude
Rises 16:37:56 0° 340° (NNW) 3,289 7.5 -11.3°
Reaches altitude 10° 16:40:21 10° 339° (NNW) 2,353 6.8 -11.8°
Maximum altitude 16:45:41 77° 254° (WSW) 804 4.2 -12.8°
Drops below altitude 10° 16:50:56 10° 169° (S) 2,311 6.4 -13.8°
Sets 16:53:18 0° 168° (SSE) 3,226 7.1 -14.3°
